N3WR Weather Reports


Display with metric or nautical units.
time (UTC)temp
F
wind
direction
speed
MPH
gust
MPH
rain 1hr
in
rain 24hr
in
rain mn
in
humidity
%
barometer
mb
20260510042959 51 346 0.0 0.0 0.00 0.17 0.00 93 1010.4
20260510041503 51 346 0.0 0.0 0.00 0.17 0.00 93 1010.5
20260510040004 51 271 0.0 0.0 0.00 0.17 0.00 92 1010.5
20260510034501 52 271 0.0 0.0 0.00 0.17 0.17 93 1010.3
20260510033002 52 248 0.0 1.0 0.00 0.17 0.17 93 1010.2
20260510031500 52 135 1.0 3.0 0.00 0.17 0.17 93 1010.2
20260510030003 51 134 1.0 3.0 0.00 0.17 0.17 92 1010.3
20260510024500 51 36 0.0 0.0 0.00 0.17 0.17 92 1010.3
20260510022959 51 36 0.0 0.0 0.00 0.17 0.17 92 1010.2
20260510021500 51 36 0.0 0.0 0.00 0.17 0.17 91 1010.2
20260510014502 52 247 0.0 0.0 0.00 0.17 0.17 91 1010.0
20260510013002 53 247 0.0 0.0 0.00 0.17 0.17 90 1010.0
20260510011500 53 247 0.0 0.0 0.00 0.17 0.17 89 1009.9
20260510010001 54 247 0.0 0.0 0.00 0.17 0.17 88 1009.7
20260510003003 56 244 0.0 0.0 0.00 0.17 0.17 86 1009.4
20260510001459 56 244 1.0 2.0 0.00 0.17 0.17 85 1009.1
20260510000004 57 207 2.0 3.0 0.00 0.17 0.17 83 1008.9
20260509234500 58 176 2.0 4.0 0.00 0.17 0.17 83 1008.8
20260509233000 58 176 2.0 4.0 0.00 0.17 0.17 81 1008.8
20260509231500 59 194 2.0 4.0 0.00 0.17 0.17 81 1008.8
20260509230001 59 184 2.0 4.0 0.00 0.17 0.17 82 1008.8
20260509224500 59 240 3.0 5.0 0.00 0.17 0.17 82 1008.8
20260509223000 59 225 3.0 7.0 0.00 0.17 0.17 81 1008.8
20260509221502 59 215 3.0 5.0 0.00 0.17 0.17 82 1008.8
20260509220008 58 244 4.0 7.0 0.00 0.17 0.17 83 1009.0
20260509214502 58 221 3.0 7.0 0.00 0.17 0.17 85 1009.3
20260509213000 58 216 3.0 6.0 0.00 0.17 0.17 86 1009.2
20260509211500 57 199 3.0 7.0 0.00 0.17 0.17 87 1009.3
20260509210001 56 179 3.0 7.0 0.00 0.17 0.17 89 1009.4
20260509204459 56 185 3.0 6.0 0.00 0.17 0.17 89 1009.5
20260509201500 56 279 2.0 5.0 0.00 0.17 0.17 88 1009.7
20260509200001 55 280 3.0 6.0 0.00 0.17 0.17 89 1009.8
20260509194459 55 205 3.0 7.0 0.01 0.17 0.17 89 1009.7
20260509193002 54 173 3.0 5.0 0.01 0.17 0.17 89 1009.8
20260509191500 54 159 1.0 5.0 0.02 0.17 0.17 91 1009.9
20260509190004 54 215 2.0 5.0 0.03 0.17 0.17 91 1010.3
20260509184502 53 172 3.0 6.0 0.02 0.16 0.16 91 1010.9
20260509182959 54 207 4.0 6.0 0.04 0.16 0.16 91 1010.9
20260509181500 54 184 3.0 4.0 0.04 0.15 0.15 91 1010.8
20260509180006 54 176 2.0 4.0 0.06 0.14 0.14 90 1010.7
20260509174500 54 232 1.0 3.0 0.09 0.14 0.14 90 1010.6
20260509173000 54 278 1.0 3.0 0.10 0.12 0.12 90 1010.5
20260509171500 54 273 1.0 3.0 0.11 0.11 0.11 90 1011.0
20260509170003 54 311 1.0 3.0 0.08 0.08 0.08 88 1010.6
20260509164459 54 242 3.0 7.0 0.04 0.04 0.04 87 1011.1
20260509161459 56 217 4.0 7.0 0.00 0.00 0.00 84 1011.4
20260509160004 57 227 4.0 9.0 0.00 0.00 0.00 82 1011.3
20260509154459 57 225 4.0 11.0 0.00 0.00 0.00 80 1011.5
20260509152959 57 215 5.0 8.0 0.00 0.00 0.00 81 1011.5
20260509151459 57 220 5.0 10.0 0.00 0.00 0.00 81 1011.3
20260509144459 56 163 2.0 7.0 0.00 0.00 0.00 83 1011.3
20260509142959 55 165 1.0 3.0 0.00 0.00 0.00 83 1011.1
20260509141459 55 174 1.0 3.0 0.00 0.00 0.00 83 1011.0
20260509140006 55 200 0.0 3.0 0.00 0.00 0.00 84 1011.1
20260509134459 54 234 1.0 2.0 0.00 0.00 0.00 85 1011.1
20260509132959 54 193 0.0 3.0 0.00 0.00 0.00 85 1011.1
20260509131459 53 104 0.0 2.0 0.00 0.00 0.00 85 1010.7
20260509130002 53 166 2.0 3.0 0.00 0.00 0.00 85 1010.8
20260509122959 52 52 1.0 3.0 0.00 0.00 0.00 85 1010.9
20260509121459 52 49 0.0 3.0 0.00 0.00 0.00 85 1011.0
20260509120000 52 37 1.0 3.0 0.00 0.00 0.00 85 1011.3
20260509114459 51 32 1.0 3.0 0.00 0.00 0.00 86 1011.0
20260509113001 51 57 0.0 2.0 0.00 0.00 0.00 86 1010.9
20260509111501 50 113 0.0 1.0 0.00 0.00 0.00 86 1010.7
20260509110003 50 42 1.0 3.0 0.00 0.00 0.00 86 1010.6
20260509104459 50 91 0.0 1.0 0.00 0.00 0.00 87 1010.9
20260509102959 50 355 0.0 2.0 0.00 0.00 0.00 86 1010.7
20260509101459 49 59 0.0 3.0 0.00 0.00 0.00 87 1010.4
20260509100005 49 55 1.0 3.0 0.00 0.00 0.00 87 1010.4
20260509094500 49 64 0.0 2.0 0.00 0.00 0.00 86 1010.5
20260509093001 49 77 0.0 2.0 0.00 0.00 0.00 87 1010.5
20260509091459 49 77 0.0 0.0 0.00 0.00 0.00 87 1010.8
20260509090000 49 77 0.0 2.0 0.00 0.00 0.00 86 1010.7
20260509084459 49 77 0.0 2.0 0.00 0.00 0.00 86 1010.9
20260509083001 49 163 0.0 0.0 0.00 0.00 0.00 86 1010.9
20260509080004 49 163 1.0 3.0 0.00 0.00 0.00 84 1011.3
20260509074459 50 27 0.0 0.0 0.00 0.00 0.00 83 1011.3
20260509072958 51 27 0.0 0.0 0.00 0.00 0.00 83 1011.1
20260509071459 51 5 0.0 2.0 0.00 0.00 0.00 82 1011.1
20260509070000 51 5 0.0 0.0 0.00 0.00 0.00 81 1011.2
20260509064500 52 5 0.0 2.0 0.00 0.00 0.00 81 1011.4
20260509063001 52 89 0.0 1.0 0.00 0.00 0.00 80 1011.5
20260509061500 53 136 0.0 0.0 0.00 0.00 0.00 77 1011.5
20260509060004 52 136 2.0 5.0 0.00 0.00 0.00 78 1011.7
20260509054501 52 34 0.0 1.0 0.00 0.00 0.00 79 1011.6
20260509052959 53 350 0.0 0.0 0.00 0.00 0.00 78 1011.8
20260509051458 54 344 1.0 3.0 0.00 0.00 0.00 76 1011.8
20260509050002 55 173 0.0 2.0 0.00 0.00 0.00 73 1011.9
20260509044501 55 161 0.0 1.0 0.00 0.00 0.00 72 1012.1